Showing default

TELSTAR 1, 340

Orbit data source: Space-Track

TELSTAR 1, 340 is a payload satellite owned by AT&T (US) in LEO that was launched on Tue, 10 Jul 1962 UTC via a THOR DELTA launch vehicle from the Air Force Eastern Test Range (AFETR). Payload-class satellites include a variety of spacecraft equipped with specific instruments for various scientific and technological missions. These include communications satellites like Starlink; space stations such as the ISS; scientific satellites like the Hubble; Earth observation satellites from companies like Planet Labs, Umbra, and HawkEye 360; GPS; miniature CubeSats for education and research; and military/defense satellites.

Loading next visibility...
Identifier
340, 1962-029A
Orbit
LEO
Country
Flag of USUS
Related business
Manufacturer
AT&T/BTL
Mission
Commercial Communications
Bus & Motor
TSX, Unknown motor
Mass
77 kg wet, 77 kg dry
Launch date (UTC)
1962-07-10 (63 years ago)
Launch vehicle
THOR DELTA
Launch site
Air Force Eastern Test Range (AFETR)
Object type
Payload
Rocket body
Debris
Shape & HBR
Sphere, 0.4 m
Radar Cross Section
0.581 m², Medium (>0.1 m² and < 1m²)

Expand to show TLE details & history
Last TLE update: 2 days ago

TLE from 2 days ago
0 TELSTAR 1
1 00340U 62029A   25240.14446182 -.00000053  00000-0 -24945-3 0  9996
2 00340  44.8104 145.2825 2425470 279.7584 256.7014  9.12888781105680
Epoch: 2025-08-28T03:28Z
TLE epoch observation values (Epoch: 2025-08-28T03:28:01.501Z)
Latitude
19.3922°
Longitude
-84.01035°
Altitude
4,313.038 km
Speed
5.777 km/s
True Right ascension
20h 18m 25s
True Declination
19° 19' 14"
Sunlit
Object was in daylight at epoch
Visualization orbit readout
Latitude
Unknown
Longitude
Unknown
Altitude
Unknown
Speed
Unknown
Apparent Right ascension
Unknown
Apparent Declination
Unknown
Sunlit
N/A
Visualization observer readout
Local Sidereal Time
15:19:46
Azimuth
Unknown
Elevation
Unknown
Doppler factor
Unknown
Orbital elements
Apogee altitude
5,639.714 km
Perigee altitude
947.909 km
Semi-major axis
9,671.948 km
Eccentricity
0.24255
Inclination
44.8104°
RAAN
145.2825°
Arg. of periapsis
279.7584°
True anomaly
232.1807°
Mean anomaly
256.7014°
Eccentric anomaly
244.19072°
Mean motion
2.28177 °/min
Orbital period
157.77 mins
BSTAR
-0.00024945
Loading maneuver chart data...
Computing Atmospheric mass density...
Loading historical data...
Loading historical data...
Loading historical data...
Loading historical data...
Loading historical data...
Loading historical data...
Loading historical data...
Other satellites on launch #29 in the year 1962 (1962-07-10 UTC)

Documentation

Showing up to 5 results
|